Time,TemperatureF,DewpointF,PressureIn,WindDirection,WindDirectionDegrees,WindSpeedMPH,WindSpeedGustMPH,Humidity,HourlyPrecipIn,Conditions,Clouds,dailyrainin,SoftwareType,DateUTC
2013-05-28 00:02:00,65.0,65.0,-100.00,East,95,9.0,10.0,99,0.00,,,-99.99,,2013-05-28 05:02:00,
2013-05-28 00:12:00,65.0,65.0,-100.00,East,95,9.0,12.0,99,0.00,,,-99.99,,2013-05-28 05:12:00,
2013-05-28 00:22:00,65.0,65.0,-100.00,East,95,11.0,12.0,99,0.00,,,-99.99,,2013-05-28 05:22:00,
2013-05-28 00:33:00,65.0,65.0,-100.00,East,100,11.0,14.0,99,0.00,,,-99.99,,2013-05-28 05:33:00,
2013-05-28 00:42:00,65.0,65.0,-100.00,East,100,10.0,14.0,99,0.01,,,-99.99,,2013-05-28 05:42:00,
2013-05-28 00:52:00,65.0,65.0,-100.00,East,95,12.0,13.0,99,0.04,,,-99.99,,2013-05-28 05:52:00,
2013-05-28 01:02:00,65.0,65.0,-100.00,East,100,12.0,14.0,99,0.00,,,-99.99,,2013-05-28 06:02:00,
2013-05-28 01:12:00,65.0,65.0,-100.00,East,100,12.0,14.0,99,0.00,,,-99.99,,2013-05-28 06:12:00,
2013-05-28 01:22:00,65.0,-99.9,-100.00,ESE,105,10.0,14.0,-999,0.04,,,-99.99,,2013-05-28 06:22:00,
2013-05-28 01:32:00,65.0,65.0,-100.00,East,100,12.0,15.0,99,0.00,,,-99.99,,2013-05-28 06:32:00,
2013-05-28 01:42:00,65.0,65.0,-100.00,East,95,11.0,13.0,99,0.00,,,-99.99,,2013-05-28 06:42:00,
2013-05-28 01:51:00,65.0,65.0,-100.00,ESE,115,8.0,13.0,99,0.00,,,-99.99,,2013-05-28 06:51:00,
2013-05-28 02:01:00,65.0,65.0,-100.00,ESE,115,9.0,14.0,99,0.03,,,-99.99,,2013-05-28 07:01:00,
2013-05-28 02:11:00,65.0,65.0,-100.00,South,175,4.0,11.0,99,0.96,,,-99.99,,2013-05-28 07:11:00,
2013-05-28 02:22:00,65.0,-99.9,-100.00,ESE,115,9.0,12.0,-999,0.11,,,-99.99,,2013-05-28 07:22:00,
2013-05-28 02:32:00,65.0,-99.9,-100.00,ESE,115,9.0,12.0,-999,0.11,,,-99.99,,2013-05-28 07:32:00,
2013-05-28 02:42:00,65.0,65.0,-100.00,SSE,150,7.0,16.0,99,0.07,,,-99.99,,2013-05-28 07:42:00,
2013-05-28 02:52:00,66.0,66.0,-100.00,SW,235,6.0,12.0,99,0.40,,,-99.99,,2013-05-28 07:52:00,
2013-05-28 03:02:00,66.0,66.0,-100.00,SW,235,6.0,12.0,99,0.40,,,-99.99,,2013-05-28 08:02:00,
2013-05-28 03:12:00,65.0,65.0,-100.00,WSW,245,9.0,18.0,99,0.35,,,-99.99,,2013-05-28 08:12:00,
2013-05-28 03:21:00,65.0,65.0,-100.00,WSW,245,9.0,18.0,99,0.35,,,-99.99,,2013-05-28 08:21:00,
2013-05-28 03:32:00,65.0,65.0,-100.00,WNW,290,2.0,8.0,99,0.14,,,-99.99,,2013-05-28 08:32:00,
2013-05-28 03:42:00,65.0,65.0,-100.00,WNW,290,2.0,8.0,99,0.14,,,-99.99,,2013-05-28 08:42:00,
2013-05-28 03:51:00,65.0,65.0,-100.00,WNW,290,2.0,8.0,99,0.14,,,-99.99,,2013-05-28 08:51:00,
2013-05-28 04:01:00,65.0,65.0,-100.00,WNW,290,2.0,8.0,99,0.14,,,-99.99,,2013-05-28 09:01:00,
2013-05-28 04:11:00,64.0,64.0,-100.00,ESE,105,7.0,-999.0,99,0.00,,,-99.99,,2013-05-28 09:11:00,
2013-05-28 04:21:00,64.0,64.0,-100.00,ESE,105,6.0,9.0,99,0.03,,,-99.99,,2013-05-28 09:21:00,
2013-05-28 04:33:00,63.0,63.0,-100.00,East,90,4.0,7.0,99,0.10,,,-99.99,,2013-05-28 09:33:00,
2013-05-28 04:42:00,63.0,63.0,-100.00,ENE,70,4.0,7.0,99,0.08,,,-99.99,,2013-05-28 09:42:00,
2013-05-28 04:53:00,63.0,63.0,-100.00,ENE,65,8.0,9.0,99,0.07,,,-99.99,,2013-05-28 09:53:00,
2013-05-28 05:03:00,63.0,63.0,-100.00,ENE,65,8.0,9.0,99,0.07,,,-99.99,,2013-05-28 10:03:00,
2013-05-28 05:12:00,63.0,63.0,-100.00,ENE,65,9.0,13.0,99,0.00,,,-99.99,,2013-05-28 10:12:00,
2013-05-28 05:22:00,63.0,63.0,-100.00,East,85,4.0,9.0,99,0.00,,,-99.99,,2013-05-28 10:22:00,
2013-05-28 05:32:00,63.0,63.0,-100.00,SE,130,7.0,12.0,99,0.00,,,-99.99,,2013-05-28 10:32:00,
2013-05-28 05:42:00,63.0,63.0,-100.00,SE,130,7.0,12.0,99,0.00,,,-99.99,,2013-05-28 10:42:00,
2013-05-28 05:53:00,63.0,63.0,-100.00,ESE,120,6.0,10.0,99,0.00,,,-99.99,,2013-05-28 10:53:00,
2013-05-28 06:02:00,63.0,63.0,-100.00,ESE,120,6.0,10.0,99,0.00,,,-99.99,,2013-05-28 11:02:00,
2013-05-28 06:11:00,63.0,63.0,-100.00,SE,145,6.0,11.0,99,0.00,,,-99.99,,2013-05-28 11:11:00,
2013-05-28 06:22:00,63.0,63.0,-100.00,SE,145,6.0,11.0,99,0.00,,,-99.99,,2013-05-28 11:22:00,
2013-05-28 06:32:00,63.0,63.0,-100.00,SE,140,1.0,6.0,99,0.04,,,-99.99,,2013-05-28 11:32:00,
2013-05-28 06:42:00,63.0,63.0,-100.00,SE,140,1.0,6.0,99,0.04,,,-99.99,,2013-05-28 11:42:00,
2013-05-28 06:52:00,63.0,63.0,-100.00,SE,145,3.0,6.0,99,0.00,,,-99.99,,2013-05-28 11:52:00,
2013-05-28 07:01:00,63.0,63.0,-100.00,SE,145,3.0,6.0,99,0.00,,,-99.99,,2013-05-28 12:01:00,
2013-05-28 07:11:00,63.0,63.0,-100.00,South,170,1.0,6.0,99,0.00,,,-99.99,,2013-05-28 12:11:00,
2013-05-28 07:21:00,63.0,63.0,-100.00,South,170,1.0,6.0,99,0.00,,,-99.99,,2013-05-28 12:21:00,
2013-05-28 07:32:00,64.0,64.0,-100.00,SSE,165,7.0,9.0,99,0.00,,,-99.99,,2013-05-28 12:32:00,
2013-05-28 07:42:00,64.0,64.0,-100.00,SSE,165,7.0,9.0,99,0.00,,,-99.99,,2013-05-28 12:42:00,
2013-05-28 07:52:00,65.0,-99.9,-100.00,SSW,200,7.0,13.0,-999,0.00,,,-99.99,,2013-05-28 12:52:00,
2013-05-28 08:01:00,64.0,64.0,-100.00,SSW,195,9.0,12.0,99,0.00,,,-99.99,,2013-05-28 13:01:00,
2013-05-28 08:11:00,64.0,64.0,-100.00,SSW,195,9.0,12.0,99,0.00,,,-99.99,,2013-05-28 13:11:00,
2013-05-28 08:21:00,64.0,64.0,-100.00,SSW,195,6.0,12.0,99,0.00,,,-99.99,,2013-05-28 13:21:00,
2013-05-28 08:32:00,64.0,64.0,-100.00,SSW,195,6.0,11.0,99,0.00,,,-99.99,,2013-05-28 13:32:00,
2013-05-28 08:42:00,65.0,-99.9,-100.00,South,185,6.0,10.0,-999,0.00,,,-99.99,,2013-05-28 13:42:00,
2013-05-28 08:52:00,66.0,66.0,-100.00,SSE,160,4.0,16.0,99,0.00,,,-99.99,,2013-05-28 13:52:00,
2013-05-28 09:02:00,67.0,67.0,-100.00,SSW,200,6.0,10.0,99,0.00,,,-99.99,,2013-05-28 14:02:00,
2013-05-28 09:11:00,67.0,67.0,-100.00,SSW,200,6.0,10.0,99,0.00,,,-99.99,,2013-05-28 14:11:00,
2013-05-28 09:21:00,69.0,69.0,-100.00,South,185,7.0,12.0,99,0.00,,,-99.99,,2013-05-28 14:21:00,
2013-05-28 09:32:00,68.0,68.0,-100.00,SSW,210,9.0,14.0,99,0.00,,,-99.99,,2013-05-28 14:32:00,
2013-05-28 09:42:00,69.0,69.0,-100.00,SW,215,10.0,16.0,99,0.00,,,-99.99,,2013-05-28 14:42:00,
2013-05-28 09:52:00,69.0,69.0,-100.00,SSW,195,9.0,15.0,99,0.00,,,-99.99,,2013-05-28 14:52:00,
2013-05-28 10:01:00,69.0,69.0,-100.00,SSW,195,9.0,14.0,99,0.00,,,-99.99,,2013-05-28 15:01:00,
2013-05-28 10:11:00,69.0,69.0,-100.00,SSW,195,9.0,14.0,99,0.00,,,-99.99,,2013-05-28 15:11:00,
2013-05-28 10:21:00,68.0,68.0,-100.00,South,175,7.0,14.0,99,0.00,,,-99.99,,2013-05-28 15:21:00,
2013-05-28 10:32:00,68.0,68.0,-100.00,SSW,205,7.0,13.0,99,0.00,,,-99.99,,2013-05-28 15:32:00,
2013-05-28 10:43:00,68.0,68.0,-100.00,SSW,205,7.0,13.0,99,0.00,,,-99.99,,2013-05-28 15:43:00,
2013-05-28 10:53:00,68.0,68.0,-100.00,South,185,4.0,14.0,99,0.00,,,-99.99,,2013-05-28 15:53:00,
2013-05-28 11:03:00,68.0,68.0,-100.00,South,185,4.0,14.0,99,0.00,,,-99.99,,2013-05-28 16:03:00,
2013-05-28 11:13:00,67.0,-99.9,-100.00,SSW,200,7.0,12.0,-999,0.00,,,-99.99,,2013-05-28 16:13:00,
2013-05-28 11:22:00,67.0,67.0,-100.00,SSW,200,6.0,9.0,99,0.00,,,-99.99,,2013-05-28 16:22:00,
2013-05-28 11:33:00,67.0,67.0,-100.00,SSE,160,5.0,12.0,99,0.00,,,-99.99,,2013-05-28 16:33:00,
2013-05-28 11:42:00,67.0,67.0,-100.00,SSE,160,5.0,12.0,99,0.00,,,-99.99,,2013-05-28 16:42:00,
2013-05-28 11:52:00,67.0,67.0,-100.00,SW,215,4.0,10.0,99,0.00,,,-99.99,,2013-05-28 16:52:00,
2013-05-28 12:02:00,67.0,67.0,-100.00,SW,215,4.0,10.0,99,0.00,,,-99.99,,2013-05-28 17:02:00,
2013-05-28 12:12:00,67.0,67.0,-100.00,South,170,4.0,9.0,99,0.00,,,-99.99,,2013-05-28 17:12:00,
2013-05-28 12:22:00,67.0,67.0,-100.00,South,170,4.0,9.0,99,0.00,,,-99.99,,2013-05-28 17:22:00,
2013-05-28 12:32:00,68.0,68.0,-100.00,SSE,155,4.0,7.0,99,0.00,,,-99.99,,2013-05-28 17:32:00,
2013-05-28 12:42:00,68.0,68.0,-100.00,SSE,155,4.0,7.0,99,0.00,,,-99.99,,2013-05-28 17:42:00,
2013-05-28 12:51:00,69.0,69.0,-100.00,SSW,195,6.0,9.0,99,0.00,,,-99.99,,2013-05-28 17:51:00,
2013-05-28 13:01:00,69.0,69.0,-100.00,SSW,195,6.0,9.0,99,0.00,,,-99.99,,2013-05-28 18:01:00,
2013-05-28 13:11:00,69.0,69.0,-100.00,SSE,165,4.0,7.0,99,0.00,,,-99.99,,2013-05-28 18:11:00,
2013-05-28 13:21:00,69.0,69.0,-100.00,SW,215,4.0,9.0,99,0.00,,,-99.99,,2013-05-28 18:21:00,
2013-05-28 13:32:00,70.0,-99.9,-100.00,SSW,200,6.0,9.0,-999,0.00,,,-99.99,,2013-05-28 18:32:00,
2013-05-28 13:42:00,69.0,69.0,-100.00,SW,215,7.0,11.0,99,0.00,,,-99.99,,2013-05-28 18:42:00,
2013-05-28 13:52:00,70.0,-99.9,-100.00,SW,215,5.0,9.0,-999,0.00,,,-99.99,,2013-05-28 18:52:00,
2013-05-28 14:01:00,70.0,70.0,-100.00,SW,230,6.0,8.0,99,0.00,,,-99.99,,2013-05-28 19:01:00,
2013-05-28 14:11:00,71.0,71.0,-100.00,SW,225,4.0,9.0,99,0.00,,,-99.99,,2013-05-28 19:11:00,
2013-05-28 14:21:00,73.0,73.0,-100.00,SSW,210,6.0,9.0,99,0.00,,,-99.99,,2013-05-28 19:21:00,
2013-05-28 14:32:00,74.0,74.0,-100.00,South,185,6.0,9.0,99,0.00,,,-99.99,,2013-05-28 19:32:00,
2013-05-28 14:42:00,74.0,74.0,-100.00,South,185,6.0,9.0,99,0.00,,,-99.99,,2013-05-28 19:42:00,
2013-05-28 14:52:00,75.0,75.0,-100.00,SSW,195,8.0,12.0,99,0.00,,,-99.99,,2013-05-28 19:52:00,
2013-05-28 15:01:00,75.0,75.0,-100.00,SSW,210,9.0,14.0,99,0.00,,,-99.99,,2013-05-28 20:01:00,
2013-05-28 15:11:00,76.0,76.0,-100.00,SW,225,9.0,14.0,99,0.00,,,-99.99,,2013-05-28 20:11:00,
2013-05-28 15:22:00,76.0,76.0,-100.00,SW,220,12.0,17.0,99,0.00,,,-99.99,,2013-05-28 20:22:00,
2013-05-28 15:32:00,76.0,-99.9,-100.00,SW,230,10.0,16.0,-999,0.00,,,-99.99,,2013-05-28 20:32:00,
2013-05-28 15:42:00,76.0,-99.9,-100.00,SW,230,10.0,16.0,-999,0.00,,,-99.99,,2013-05-28 20:42:00,
2013-05-28 15:52:00,74.0,74.0,-100.00,SW,215,8.0,12.0,99,0.00,,,-99.99,,2013-05-28 20:52:00,
2013-05-28 16:01:00,74.0,74.0,-100.00,WSW,245,4.0,9.0,99,0.00,,,-99.99,,2013-05-28 21:01:00,
2013-05-28 16:11:00,74.0,74.0,-100.00,WSW,250,5.0,7.0,99,0.00,,,-99.99,,2013-05-28 21:11:00,
2013-05-28 16:21:00,74.0,74.0,-100.00,SW,235,2.0,6.0,99,0.00,,,-99.99,,2013-05-28 21:21:00,
2013-05-28 16:33:00,74.0,74.0,-100.00,WSW,255,2.0,4.0,99,0.00,,,-99.99,,2013-05-28 21:33:00,
2013-05-28 16:43:00,74.0,-99.9,-100.00,West,280,3.0,4.0,-999,0.00,,,-99.99,,2013-05-28 21:43:00,
2013-05-28 16:53:00,73.0,73.0,-100.00,West,260,4.0,6.0,99,0.00,,,-99.99,,2013-05-28 21:53:00,
2013-05-28 17:02:00,73.0,73.0,-100.00,South,180,2.0,4.0,99,0.01,,,-99.99,,2013-05-28 22:02:00,
2013-05-28 17:12:00,73.0,73.0,-100.00,SSE,160,8.0,24.0,99,0.00,,,-99.99,,2013-05-28 22:12:00,
2013-05-28 17:22:00,72.0,72.0,-100.00,SSE,165,6.0,7.0,99,0.01,,,-99.99,,2013-05-28 22:22:00,
2013-05-28 17:33:00,72.0,-99.9,-100.00,SSE,160,4.0,7.0,-999,0.00,,,-99.99,,2013-05-28 22:33:00,
2013-05-28 17:42:00,71.0,71.0,-100.00,South,170,4.0,6.0,99,0.00,,,-99.99,,2013-05-28 22:42:00,
2013-05-28 17:52:00,71.0,71.0,-100.00,SSE,165,6.0,7.0,99,0.00,,,-99.99,,2013-05-28 22:52:00,
2013-05-28 18:02:00,72.0,-99.9,-100.00,SSW,210,1.0,7.0,-999,0.00,,,-99.99,,2013-05-28 23:02:00,
2013-05-28 18:12:00,72.0,-99.9,-100.00,SSW,210,1.0,7.0,-999,0.00,,,-99.99,,2013-05-28 23:12:00,
2013-05-28 18:21:00,76.0,76.0,-100.00,SW,215,4.0,7.0,99,0.00,,,-99.99,,2013-05-28 23:21:00,
2013-05-28 18:32:00,76.0,76.0,-100.00,SW,215,4.0,7.0,99,0.00,,,-99.99,,2013-05-28 23:32:00,
2013-05-28 18:42:00,76.0,76.0,-100.00,SW,220,3.0,6.0,99,0.00,,,-99.99,,2013-05-28 23:42:00,
2013-05-28 18:52:00,74.0,74.0,-100.00,West,260,4.0,7.0,99,0.00,,,-99.99,,2013-05-28 23:52:00,
2013-05-28 19:02:00,73.0,73.0,-100.00,WSW,245,5.0,7.0,99,0.00,,,-99.99,,2013-05-29 00:02:00,
2013-05-28 19:11:00,73.0,73.0,-100.00,WNW,285,6.0,7.0,99,0.00,,,-99.99,,2013-05-29 00:11:00,
2013-05-28 19:21:00,72.0,72.0,-100.00,WNW,290,4.0,7.0,99,0.00,,,-99.99,,2013-05-29 00:21:00,
2013-05-28 19:32:00,72.0,-99.9,-100.00,West,275,1.0,4.0,-999,0.00,,,-99.99,,2013-05-29 00:32:00,
2013-05-28 19:41:00,71.0,71.0,-100.00,South,175,3.0,6.0,99,0.00,,,-99.99,,2013-05-29 00:41:00,
2013-05-28 19:52:00,71.0,71.0,-100.00,SW,220,4.0,6.0,99,0.00,,,-99.99,,2013-05-29 00:52:00,
2013-05-28 20:01:00,70.0,70.0,-100.00,SSE,165,2.0,6.0,99,0.00,,,-99.99,,2013-05-29 01:01:00,
2013-05-28 20:11:00,70.0,70.0,-100.00,SSE,165,3.0,6.0,99,0.00,,,-99.99,,2013-05-29 01:11:00,
2013-05-28 20:22:00,69.0,-99.9,-100.00,SSE,150,6.0,9.0,-999,0.00,,,-99.99,,2013-05-29 01:22:00,
2013-05-28 20:32:00,69.0,-99.9,-100.00,SSE,165,6.0,9.0,-999,0.00,,,-99.99,,2013-05-29 01:32:00,
2013-05-28 20:42:00,70.0,-99.9,-100.00,SSE,160,11.0,14.0,-999,0.00,,,-99.99,,2013-05-29 01:42:00,
2013-05-28 20:52:00,70.0,70.0,-100.00,South,185,9.0,15.0,99,0.00,,,-99.99,,2013-05-29 01:52:00,
2013-05-28 21:02:00,69.0,69.0,-100.00,South,185,7.0,16.0,99,0.00,,,-99.99,,2013-05-29 02:02:00,
2013-05-28 21:12:00,69.0,69.0,-100.00,South,185,7.0,16.0,99,0.00,,,-99.99,,2013-05-29 02:12:00,
2013-05-28 21:21:00,67.0,67.0,-100.00,SSE,160,6.0,13.0,99,0.00,,,-99.99,,2013-05-29 02:21:00,
2013-05-28 21:32:00,66.0,-99.9,-100.00,SSW,200,6.0,9.0,-999,0.00,,,-99.99,,2013-05-29 02:32:00,
2013-05-28 21:42:00,66.0,-99.9,-100.00,South,170,4.0,9.0,-999,0.00,,,-99.99,,2013-05-29 02:42:00,
2013-05-28 21:52:00,66.0,-99.9,-100.00,South,170,4.0,9.0,-999,0.00,,,-99.99,,2013-05-29 02:52:00,
2013-05-28 22:02:00,66.0,66.0,-100.00,SW,215,6.0,7.0,99,0.00,,,-99.99,,2013-05-29 03:02:00,
2013-05-28 22:12:00,67.0,-99.9,-100.00,SSW,195,7.0,14.0,-999,0.00,,,-99.99,,2013-05-29 03:12:00,
2013-05-28 22:21:00,67.0,67.0,-100.00,SSW,205,10.0,18.0,99,0.00,,,-99.99,,2013-05-29 03:21:00,
2013-05-28 22:33:00,67.0,67.0,-100.00,SSW,205,10.0,18.0,99,0.00,,,-99.99,,2013-05-29 03:33:00,
2013-05-28 22:43:00,67.0,67.0,-100.00,SSW,210,7.0,18.0,99,0.00,,,-99.99,,2013-05-29 03:43:00,
2013-05-28 22:53:00,66.0,-99.9,-100.00,South,180,7.0,15.0,-999,0.00,,,-99.99,,2013-05-29 03:53:00,
2013-05-28 23:02:00,66.0,66.0,-100.00,SSW,195,8.0,19.0,99,0.00,,,-99.99,,2013-05-29 04:02:00,
2013-05-28 23:13:00,66.0,66.0,-100.00,SSW,195,7.0,16.0,99,0.00,,,-99.99,,2013-05-29 04:13:00,
2013-05-28 23:23:00,66.0,-99.9,-100.00,SSE,165,10.0,12.0,-999,0.00,,,-99.99,,2013-05-29 04:23:00,
2013-05-28 23:33:00,65.0,65.0,-100.00,SE,130,4.0,9.0,99,0.00,,,-99.99,,2013-05-29 04:33:00,
2013-05-28 23:42:00,65.0,65.0,-100.00,South,170,4.0,10.0,99,0.00,,,-99.99,,2013-05-29 04:42:00,
2013-05-28 23:52:00,65.0,65.0,-100.00,South,170,4.0,10.0,99,0.00,,,-99.99,,2013-05-29 04:52:00,